Regional Weather Roundup
Issued by NWS Charleston, SC

Current Version | Previous Version | Graphics & Text | Print | Product List | Glossary On
Versions: 1 2 3 4 5 6 7 8 9 10 11 12 13 14 15 16 17 18 19 20 21 22 23 24 25 26 27 28 29 30 31 32 33 34 35 36 37 38 39 40 41 42 43 44 45 46 47 48 49 50
000
ASUS42 KCHS 261013
RWRCHS

REGIONAL WEATHER ROUNDUP
NATIONAL WEATHER SERVICE CHARLESTON SC
600 AM EDT TUE JUL 26 2016

NOTE: "FAIR" INDICATES FEW OR NO CLOUDS BELOW 12,000 FEET WITH NO
SIGNIFICANT WEATHER AND/OR OBSTRUCTIONS TO VISIBILITY.

NOT ALL STATIONS ARE QUALITY CONTROLLED. USE DATA WITH CAUTION...
ESPECIALLY DEWPOINT OBSERVATIONS.

SCZ027-030-031-034>040-042>050-261100-
...SOUTHEAST SOUTH CAROLINA...

CITY           SKY/WX    TMP DP  RH WIND       PRES   REMARKS
N CHARLESTON   CLEAR     76  72  87 SW3       30.04R
WATERFRONT PRK   N/A     80  75  84 CALM      30.01S
MOUNT PLEASANT FAIR      73  73 100 CALM      30.05R
JOHNS ISLAND   FAIR      77  73  88 CALM      30.05R
PINOPOLIS        N/A     79  73  83 SW7       29.96R
MONCKS CORNER  FAIR      70  68  94 CALM      30.04R
SUMMERVILLE    FAIR      72  72 100 CALM      30.05R
BEAUFORT MCAS  CLEAR     78  73  84 SW6       30.04R
BEAUFORT ARPT  FAIR      79  73  83 SW7       30.04R
HILTON HEAD IS NOT AVBL
WALTERBORO     SUNNY     77  77 100 S3        30.05R
ALLENDALE      FAIR      75  72  88 CALM      30.03R

...SOUTHERN MIDLANDS AND PEE DEE...

CITY           SKY/WX    TMP DP  RH WIND       PRES   REMARKS
GEORGETOWN     FAIR      72  70  94 CALM      30.05S
KINGSTREE      FAIR      72  70  94 CALM      30.04R
ORANGEBURG     CLEAR     73  71  93 S5        30.04R
BARNWELL       NOT AVBL
AIKEN          FAIR      73  70  88 SW7       30.06S
MANNING        FAIR      77  72  83 SW3       30.04R
COLUMBIA       CLEAR     77  71  82 CALM      30.02R
SUMTER         CLEAR     75  71  87 S6        30.01R
FLORENCE       CLEAR     76  73  91 SW5       30.03R
MYRTLE BEACH   CLEAR     77  66  69 SW5       30.06R
N MYRTLE BEACH CLEAR     80  73  79 SW8       30.03R

$$

GAZ063-065-086>088-099>101-113>116-118-119-134>141-150-261100-
...SOUTHEAST GEORGIA...

CITY           SKY/WX    TMP DP  RH WIND       PRES   REMARKS
SAVANNAH ARPT  PTCLDY    76  72  87 SW5       30.05R
HUNTER AAF     CLEAR     77  76  96 W3        30.02R
FORT STEWART   CLEAR     73  71  92 CALM      30.03R
STATESBORO     CLEAR     76  74  92 CALM      30.04R
SYLVANIA       NOT AVBL
CLAXTON        FAIR      73  73 100 CALM      30.04S

...CSRA...CENTRAL AND FAR SOUTHEAST GEORGIA...

CITY           SKY/WX    TMP DP  RH WIND       PRES   REMARKS
THOMSON        NOT AVBL
AUGUSTA-BUSH   CLEAR     74  70  87 CALM      30.02R
AUGUSTA-DANIEL CLEAR     77  70  79 CALM      30.04R
SWAINSBORO     FAIR      73  70  88 CALM      30.06R
VIDALIA        CLEAR     73  72  94 CALM      30.05S
EASTMAN        FAIR      72  72 100 CALM      30.07S
HAZLEHURST     FAIR      75  75 100 CALM      30.04S
ALMA           PTCLDY    74  72  93 CALM      30.04S
WAYCROSS       PTCLDY    78  77  95 CALM      30.05S
JESUP          FAIR      72  72 100 CALM      30.05S
BAXLEY         FAIR      73  73 100 CALM      30.04S
BRUNSWICK      CLEAR     73  73 100 CALM      30.06S
SAINT SIMONS   CLEAR     78  73  84 SW3       30.05R

$$

SCZ027-028-034-036>038-045-046-048>050-GAZ119-141-261100-
...LAKE AND SUPPLEMENTAL COASTAL OBSERVATIONS...

STATION/POSITION TIME  TEMP    WIND        PRES    WAVE   SWELL
                       AIR SEA DIR/SP/G            HT/PER HT/PER/DIR
                 (UTC) (F)     (DEG/KT/KT) (MB)    (FT/S) (FT/S/D)
WINYAH BAY       NOT AVBL
LAKE MURRAY      NOT AVBL
ACE BASIN NERRS  NOT AVBL
FORT PULASKI     0900   81 87  230/  4/  6 1017.5F
SAPELO ISLAND    0900   81     230/  6     1017.0S

$$

ANZ835-935-AMZ111-154-330-350-352-354-370-450-454-472-261100-
...C-MAN AND BUOY OBSERVATIONS...

STATION/POSITION TIME  TEMP    WIND        PRES    WAVE   SWELL
                       AIR SEA DIR/SP/G            HT/PER HT/PER/DIR
                 (UTC) (F)     (DEG/KT/KT) (MB)    (FT/S) (FT/S/D)
BUOY 41004       0950   84 86  230/ 12/ 14 1017.0R   2/ 4   2/140/ 8
BUOY 41008       0950   84 86  240/ 10/ 12 1017.1R   2/ 4   2/160/ 5
FOLLY BEACH CMAN 1000   83     230/  6/  8 1017.5R
CAPERS NEARSHORE 0908   83 82  230/ 12/ 17 1016.8R
FRIPP NEARSHORE  0908   84 86  250/ 14/ 17 1016.2S


STATION/POSITION TIME  TEMP    WIND        PRES    WAVE   SWELL
                       AIR SEA DIR/SP/G            HT/PER HT/PER/DIR
                 (UTC) (F)     (DEG/KT/KT) (MB)    (FT/S) (FT/S/D)
5E ST. MARYS GA  1001      86                N/A     2/ 4
FRYING PAN BUOY  0900   84 85  240/ 14/ 17 1016.8R
BUOY 41025       0950   83 85  250/ 19/ 21 1015.9F   5/ 5
CAPE LOOKOUT NC  0900   82     250/ 15/ 18 1016.3R
BUOY 41002       0950   82 84  190/ 12/ 14 1018.2S   2/ 8   2/100/ 8
BUOY 41010       0920   85 86  180/  8/ 10 1018.2S
ST AUGUSTINE FL  1000   77 84  210/  1/  2 1018.8R


$$



USA.gov is the U.S. government's official web portal to all federal, state and local government web resources and services.